STARLINK-1216 (45185 NORAD) Tracking and Keplerian Element Data

This shows tracking and keplerian element data for the satellite.

Feedback or suggestion? Click here.




ElementValue
Catalog45185
NameSTARLINK-1216
Epoch Orbit2172
Epoch Day187.50002315
Epoch Year2020
RAAN353.5259
Inclination53.0009
Eccentricity0.0001531
Argument of Perigee115.2577
Mean Anonmoly89.3407
Mean Motion15.0559761
Decay Rate-5.82E-06
L11 45185U 20012H 20187.50002315 -.00000582 00000-0 -20740-4 0 9996
L22 45185 53.0009 353.5259 0001531 115.2577 89.3407 15.05597610 21724

Live tracking and technical data element details for STARLINK-1216 (NORAD 45185). STARLINK-1216 can be tracked NOW for your location showing map with azimuth and elevation plus other details from your city location.

Track the satellite on the map from your city or location and see movement details for azimuth, elevation, latitude, longitude, range, height, and movement on the map or in text.







IsCatalogInMostPopularTable: catalog: 45185, numindb: 26
Update: records affected: 1



GetName: 45185 STARLINK-1216

Hit Count: updated at: Mon, 06 Jul 2020 05:01:49 GMT